This is the latest recevied weather packets stored in our database for station/object N8BAP. If no packets are shown the sender has not sent any weather packets the latest 1 day(s).
| Time | Temp. | Humidity | Pressure | Rain* | Wind** | Luminosity | Snow |
|---|---|---|---|---|---|---|---|
| 1778029514 | 15.56° C | 84% | 1012.6 hPa | 0 mm | 3.13 m/s, 189° | 0 W/m² | - |
| 1778029210 | 16.11° C | 82% | 1012.6 hPa | 0 mm | 2.24 m/s, 265° | 0 W/m² | - |
| 1778028907 | 15.56° C | 82% | 1012.5 hPa | 0 mm | 4.47 m/s, 222° | 0 W/m² | - |
| 1778028602 | 15.56° C | 82% | 1012.3 hPa | 0 mm | 2.68 m/s, 244° | 0 W/m² | - |
| 1778028300 | 15.56° C | 83% | 1012.4 hPa | 0 mm | 1.34 m/s, 252° | 0 W/m² | - |
| 1778027996 | 15.56° C | 83% | 1012.7 hPa | 0 mm | 2.68 m/s, 230° | 0 W/m² | - |
| 1778027693 | 16.11° C | 82% | 1012.6 hPa | 0 mm | 1.79 m/s, 231° | 0 W/m² | - |
| 1778027389 | 16.11° C | 82% | 1012.4 hPa | 0 mm | 4.02 m/s, 234° | 0 W/m² | - |
| 1778027085 | 15.56° C | 83% | 1012.3 hPa | 0 mm | 1.34 m/s, 200° | 0 W/m² | - |
| 1778026781 | 15.56° C | 86% | 1012.5 hPa | 0 mm | 1.34 m/s, 206° | 0 W/m² | - |
| 1778026478 | 15.56° C | 87% | 1012.4 hPa | 0 mm | 1.34 m/s, 204° | 1 W/m² | - |
| 1778026175 | 15.56° C | 88% | 1012.4 hPa | 0 mm | 1.34 m/s, 207° | 3 W/m² | - |
| 1778025873 | 15.56° C | 88% | 1012.7 hPa | 0 mm | 0.89 m/s, 172° | 5 W/m² | - |
| 1778025569 | 15.56° C | 88% | 1012.5 hPa | 0 mm | 1.34 m/s, 223° | 8 W/m² | - |
| 1778025268 | 15.56° C | 88% | 1012.4 hPa | 0 mm | 1.34 m/s, 184° | 14 W/m² | - |
| 1778024964 | 15.56° C | 89% | 1012.4 hPa | 0 mm | 1.34 m/s, 203° | 13 W/m² | - |
| 1778024662 | 15.56° C | 89% | 1012.7 hPa | 0 mm | 1.34 m/s, 198° | 10 W/m² | - |
| 1778024358 | 15.56° C | 88% | 1012.5 hPa | 0 mm | 0.89 m/s, 195° | 12 W/m² | - |
| 1778024056 | 15.56° C | 88% | 1012.5 hPa | 0 mm | 0.89 m/s, 202° | 23 W/m² | - |
| 1778023753 | 15.56° C | 88% | 1012.5 hPa | 0 mm | 0.45 m/s, 325° | 23 W/m² | - |
| 1778023451 | 15.56° C | 88% | 1012.8 hPa | 0 mm | 1.34 m/s, 190° | 23 W/m² | - |
| 1778023147 | 15.56° C | 89% | 1012.9 hPa | 0 mm | 2.68 m/s, 250° | 22 W/m² | - |
| 1778022845 | 16.11° C | 89% | 1013.2 hPa | 0 mm | 2.24 m/s, 249° | 26 W/m² | - |
| 1778022543 | 16.11° C | 90% | 1013.4 hPa | 0 mm | 4.02 m/s, 242° | 18 W/m² | - |
| 1778022241 | 15.56° C | 91% | 1013.5 hPa | 0 mm | 3.58 m/s, 173° | 34 W/m² | - |
* Rain latest hour (hover to see other rain measurements)
** Current wind speed in m/s (hover to see current wind gust speed)